Home   Weather   Newport News   Past weeks

Flag for USA Past Weather in Newport News, Virginia, USA — Yesterday and Last 2 Weeks

Now
44 °F

Passing clouds.


Feels Like: 44 °F
Forecast: 38 / 53 °F
Wind: No wind

Location: Newport News / Williamsburg International Airport

Current Time: Jan 20, 2017 at 8:52:36 am

Latest Report: Jan 20, 2017 at 7:54 am


Visibility: 10 mi

Pressure: 29.98 "Hg

Humidity: 89%

Dew Point: 41 °F

Location of Newport NewsLocation

Past Weather in Newport News — Graph

°F

Newport News Temperature Yesterday

Maximum temperature yesterday: 56 °F (at 1:54 pm)
Minimum temperature yesterday: 36 °F (at 8:54 pm)
Average temperature yesterday: 43 °F

High & Low Weather Summary for the Past Weeks

 TemperatureHumidityPressure
High70 °F (Jan 12, 12:54 pm)100% (Jan 10, 8:54 am)30.83 "Hg (Jan 10, 8:54 am)
Low9 °F (Jan 10, 1:54 am)34% (Jan 10, 12:54 pm)29.86 "Hg (Jan 6, 4:54 am)
Average40 °F76%30.29 "Hg
* Reported Jan 5 6:54 am — Jan 20 6:54 am, Newport News, Weather by CustomWeather, © 2017

Note: Actual official high and low records may vary slightly from our data, if they occured in-between our weather recording intervals... More about our weather records

Advertising

Newport News Weather History for the Previous 24 Hours

Scroll right to see more
 ConditionsComfort  
Time TempWeatherWind HumidityBarometerVisibility
6:54 am
Fri, Jan 20
42 °FFog.3 mph92%29.98 "Hg6 mi
5:54 am41 °FClear.No wind93%29.99 "Hg7 mi
4:54 am39 °FClear.5 mph96%29.98 "Hg7 mi
3:54 am39 °FClear.3 mph93%29.99 "Hg8 mi
2:54 am40 °FClear.No wind93%30.01 "Hg9 mi
1:54 am37 °FClear.5 mph93%30.01 "Hg9 mi
12:54 am36 °FClear.No wind97%30.03 "Hg9 mi
11:54 pm
Thu, Jan 19
36 °FClear.No wind97%30.03 "Hg8 mi
10:54 pm36 °FClear.No wind92%30.04 "Hg10 mi
9:54 pm36 °FClear.No wind97%30.02 "Hg10 mi
8:54 pm36 °FClear.No wind92%30.04 "Hg10 mi
7:54 pm38 °FClear.No wind90%30.05 "Hg10 mi
6:54 pm40 °FClear.3 mph83%30.04 "Hg10 mi
5:54 pm42 °FClear.5 mph79%30.04 "Hg10 mi
4:54 pm47 °FSunny.6 mph71%30.03 "Hg10 mi
3:54 pm50 °FSunny.9 mph66%30.02 "Hg10 mi
2:54 pm53 °FSunny.8 mph59%30.00 "Hg10 mi
1:54 pm56 °FSunny.3 mph51%30.03 "Hg10 mi
12:54 pm53 °FSunny.No wind55%30.05 "Hg10 mi
11:54 am52 °FSunny.No wind59%30.09 "Hg10 mi
10:54 am49 °FSunny.5 mph64%30.13 "Hg10 mi
9:54 am49 °FSunny.6 mph69%30.12 "Hg10 mi
8:54 am45 °FSunny.No wind76%30.11 "Hg10 mi
Weather by CustomWeather, © 2017

See weather overviewHow to use our weather pages